GW3809 Weather Reports


time (UTC)temp
F
wind
direction
speed
knots
gust
knots
rain 1hr
in
rain 24hr
in
rain mn
in
humidity
%
barometer
mb
20260902123136 82 153 2.6 6.1 0.00 0.00 0.00 85 1015.2
20260902122630 82 176 2.6 5.2 0.00 0.00 0.00 85 1015.3
20260902122126 82 179 3.5 5.2 0.00 0.00 0.00 85 1015.5
20260902121621 82 184 4.3 4.3 0.00 0.00 0.00 85 1015.5
20260902121116 82 163 2.6 6.1 0.00 0.00 0.00 85 1015.6
20260902120612 82 209 2.6 3.5 0.00 0.00 0.00 85 1015.5
20260902120109 82 192 2.6 4.3 0.00 0.00 0.00 85 1015.7
20260902115603 82 169 2.6 5.2 0.00 0.00 0.00 85 1015.5
20260902115059 82 178 3.5 5.2 0.00 0.00 0.00 84 1015.6
20260902114555 82 182 3.5 5.2 0.00 0.00 0.00 84 1015.5
20260902114054 82 178 2.6 5.2 0.00 0.00 0.00 84 1015.5
20260902113550 82 168 2.6 5.2 0.00 0.00 0.00 84 1015.4
20260902113044 82 174 2.6 3.5 0.00 0.00 0.00 84 1015.4
20260902112535 82 188 3.5 6.1 0.00 0.00 0.00 84 1015.5
20260902112031 82 209 3.5 5.2 0.00 0.00 0.00 84 1015.4
20260902111527 82 177 3.5 5.2 0.00 0.00 0.00 83 1015.4
20260902111022 82 181 3.5 5.2 0.00 0.00 0.00 83 1015.5
20260902110519 82 181 3.5 7.0 0.00 0.00 0.00 83 1015.3
20260902110014 82 175 4.3 6.1 0.00 0.00 0.00 83 1015.2
20260902105508 82 173 1.7 4.3 0.00 0.00 0.00 83 1015.2
20260902105007 82 189 3.5 5.2 0.00 0.00 0.00 83 1015.1
20260902104503 82 187 3.5 6.1 0.00 0.00 0.00 83 1015.3
20260902103958 83 177 3.5 5.2 0.00 0.00 0.00 82 1015.4
20260902103454 83 149 3.5 6.1 0.00 0.00 0.00 82 1015.2
20260902102948 83 177 1.7 4.3 0.00 0.00 0.00 82 1015.2
20260902102446 83 193 4.3 7.8 0.00 0.00 0.00 82 1015.3
20260902101942 83 188 6.1 11.3 0.00 0.00 0.00 82 1015.3
20260902101442 83 160 4.3 6.1 0.00 0.00 0.00 82 1015.3
20260902100935 83 178 5.2 7.0 0.00 0.00 0.00 82 1015.4
20260902100430 83 188 4.3 6.1 0.00 0.00 0.00 82 1015.3
20260902095925 83 208 0.9 5.2 0.00 0.00 0.00 82 1015.2
20260902095419 83 166 4.3 7.0 0.00 0.00 0.00 82 1015.4
20260902094918 83 169 2.6 7.0 0.00 0.00 0.00 82 1015.5
20260902094414 83 156 4.3 7.8 0.00 0.00 0.00 82 1015.4
20260902093909 83 190 6.1 7.0 0.00 0.00 0.00 82 1015.5
20260902093404 83 160 1.7 6.1 0.00 0.00 0.00 82 1015.6
20260902092903 83 180 3.5 9.6 0.00 0.00 0.00 81 1015.7
20260902092358 83 164 5.2 7.8 0.00 0.00 0.00 81 1015.4
20260902091853 83 184 5.2 9.6 0.00 0.00 0.00 81 1015.5
20260902091348 83 160 3.5 5.2 0.00 0.00 0.00 81 1015.6
20260902090845 83 175 3.5 7.8 0.00 0.00 0.00 81 1015.4
20260902090344 83 187 3.5 7.0 0.00 0.00 0.00 81 1015.5
20260902085843 83 193 3.5 7.0 0.00 0.00 0.00 81 1015.3
20260902085338 83 160 4.3 9.6 0.00 0.00 0.00 81 1015.5
20260902084834 83 245 2.6 5.2 0.00 0.00 0.00 81 1015.4
20260902084325 83 184 5.2 7.0 0.00 0.00 0.00 81 1015.4
20260902083820 83 169 3.5 7.8 0.00 0.00 0.00 81 1015.5
20260902083320 83 178 3.5 7.8 0.00 0.00 0.00 80 1015.3
20260902082815 83 164 5.2 9.6 0.00 0.00 0.00 80 1015.4
20260902082311 84 182 3.5 7.0 0.00 0.00 0.00 80 1015.4
20260902081807 84 214 4.3 7.8 0.00 0.00 0.00 80 1015.4
20260902081303 84 173 1.7 7.0 0.00 0.00 0.00 80 1015.4
20260902080757 84 184 4.3 10.4 0.00 0.00 0.00 80 1015.5
20260902080255 84 186 3.5 7.8 0.00 0.00 0.00 80 1015.3
20260902075753 84 166 4.3 9.6 0.00 0.00 0.00 80 1015.5
20260902075249 84 167 4.3 7.8 0.00 0.00 0.00 79 1015.7
20260902074744 84 170 7.0 7.8 0.00 0.00 0.00 79 1015.6
20260902074239 84 198 3.5 6.1 0.00 0.00 0.00 79 1015.8
20260902073735 84 175 4.3 9.6 0.00 0.00 0.00 79 1015.7
20260902073230 84 160 4.3 9.6 0.00 0.00 0.00 79 1015.9
20260902072726 84 164 3.5 7.8 0.00 0.00 0.00 79 1016.0
20260902072222 84 185 1.7 5.2 0.00 0.00 0.00 79 1015.8
20260902071719 84 151 6.1 11.3 0.00 0.00 0.00 79 1016.1
20260902071213 84 189 3.5 9.6 0.00 0.00 0.00 79 1015.9
20260902070710 84 186 5.2 7.0 0.00 0.00 0.00 79 1016.0
20260902070209 84 171 5.2 9.6 0.00 0.00 0.00 79 1016.1
20260902065708 84 216 6.1 7.8 0.00 0.00 0.00 79 1016.1
20260902065204 84 173 7.0 11.3 0.00 0.00 0.00 79 1016.1
20260902064659 84 170 6.1 10.4 0.00 0.00 0.00 79 1016.2
20260902064155 84 176 3.5 7.8 0.00 0.00 0.00 79 1016.2
20260902063650 84 171 5.2 12.2 0.00 0.00 0.00 79 1016.4
20260902063144 84 162 7.0 9.6 0.00 0.00 0.00 79 1016.3
20260902062643 84 156 4.3 7.8 0.00 0.00 0.00 79 1016.2
20260902062138 84 165 6.1 7.8 0.00 0.00 0.00 79 1016.4
20260902061638 84 182 4.3 8.7 0.00 0.00 0.00 79 1016.2
20260902061134 84 174 3.5 7.0 0.00 0.00 0.00 79 1016.3
20260902060630 84 153 5.2 12.2 0.00 0.00 0.00 78 1016.2
20260902060126 84 155 7.0 10.4 0.00 0.00 0.00 78 1016.3
20260902055622 84 149 4.3 7.0 0.00 0.00 0.00 78 1016.3
20260902055117 84 171 4.3 12.2 0.00 0.00 0.00 78 1016.5
20260902054612 84 173 5.2 11.3 0.00 0.00 0.00 78 1016.4
20260902054108 84 175 5.2 12.2 0.00 0.00 0.00 78 1016.5
20260902053603 84 165 4.3 6.1 0.00 0.00 0.00 78 1016.4
20260902053103 84 166 4.3 13.0 0.00 0.00 0.00 78 1016.6
20260902052557 84 150 6.1 8.7 0.00 0.00 0.00 78 1016.5
20260902052053 84 165 4.3 7.8 0.00 0.00 0.00 78 1016.3
20260902051552 84 169 3.5 8.7 0.00 0.00 0.00 78 1016.4
20260902051051 85 179 3.5 11.3 0.00 0.00 0.00 78 1016.4
20260902050546 85 169 2.6 7.8 0.00 0.00 0.00 78 1016.3
20260902050042 85 180 3.5 7.0 0.00 0.00 0.00 78 1016.5
20260902045538 85 169 3.5 13.0 0.00 0.00 0.00 78 1016.6
20260902045033 85 172 7.8 11.3 0.00 0.00 0.00 78 1016.4
20260902044528 85 180 4.3 11.3 0.00 0.00 0.00 78 1016.4
20260902044023 85 133 9.6 10.4 0.00 0.00 0.00 77 1016.4
20260902043518 85 176 6.1 10.4 0.00 0.00 0.00 77 1016.5
20260902043013 85 148 6.1 7.0 0.00 0.00 0.00 77 1016.2
20260902042513 85 181 4.3 12.2 0.00 0.00 0.00 76 1016.5
20260902042008 85 148 3.5 7.8 0.00 0.00 0.00 76 1016.5
20260902041508 85 152 2.6 11.3 0.00 0.00 0.00 76 1016.3
20260902041002 85 147 6.1 10.4 0.00 0.00 0.00 76 1016.2
20260902040457 85 142 7.0 10.4 0.00 0.00 0.00 76 1016.2
20260902035956 85 132 8.7 14.8 0.00 0.00 0.00 76 1016.2
20260902035450 85 146 7.0 13.0 0.00 0.00 0.00 76 1016.0
20260902034945 85 154 5.2 11.3 0.00 0.00 0.00 76 1016.0
20260902034444 86 142 7.8 12.2 0.00 0.00 0.00 75 1016.0
20260902033944 86 138 5.2 13.0 0.00 0.00 0.00 75 1015.9
20260902033444 86 130 5.2 9.6 0.00 0.00 0.00 75 1015.9
20260902032943 86 152 8.7 13.0 0.00 0.00 0.00 74 1015.9
20260902032438 86 132 8.7 12.2 0.00 0.00 0.00 74 1015.7
20260902031932 86 192 3.5 10.4 0.00 0.00 0.00 73 1015.7
20260902031422 86 160 3.5 11.3 0.00 0.00 0.00 73 1015.7
20260902030918 86 156 3.5 13.0 0.00 0.00 0.00 72 1015.5
20260902030413 87 140 13.0 16.5 0.00 0.00 0.00 72 1015.3
20260902025911 87 157 5.2 7.8 0.00 0.00 0.00 71 1015.3
20260902025402 87 156 5.2 11.3 0.00 0.00 0.00 71 1015.0
20260902024901 87 172 6.1 11.3 0.00 0.00 0.00 70 1015.0
20260902024352 87 144 3.5 10.4 0.00 0.00 0.00 70 1014.7
20260902023847 87 157 9.6 13.9 0.00 0.00 0.00 70 1014.6
20260902023342 88 141 5.2 11.3 0.00 0.00 0.00 69 1014.6
20260902022841 88 148 10.4 12.2 0.00 0.00 0.00 68 1014.6
20260902022337 88 147 11.3 14.8 0.00 0.00 0.00 67 1014.4
20260902021833 89 160 10.4 14.8 0.00 0.00 0.00 66 1014.3
20260902021327 89 156 12.2 16.5 0.00 0.00 0.00 65 1014.2
20260902020823 89 141 8.7 13.9 0.00 0.00 0.00 63 1014.1
20260902020319 89 129 7.0 13.0 0.00 0.00 0.00 62 1014.0
20260902015814 89 143 5.2 11.3 0.00 0.00 0.00 62 1014.1
20260902015310 90 150 9.6 11.3 0.00 0.00 0.00 61 1013.9
20260902014806 90 153 8.7 13.0 0.00 0.00 0.00 60 1013.9
20260902014302 90 171 6.1 9.6 0.00 0.00 0.00 59 1013.9
20260902013801 91 139 10.4 12.2 0.00 0.00 0.00 58 1013.7
20260902013256 91 173 6.1 10.4 0.00 0.00 0.00 57 1013.6
20260902012751 91 157 7.0 10.4 0.00 0.00 0.00 56 1013.7
20260902012247 92 156 7.0 8.7 0.00 0.00 0.00 54 1013.4
20260902011743 92 134 6.1 13.0 0.00 0.00 0.00 53 1013.4
20260902011242 92 148 4.3 12.2 0.00 0.00 0.00 53 1013.3
20260902010736 93 152 7.0 10.4 0.00 0.00 0.00 52 1013.0
20260902010232 93 159 6.1 9.6 0.00 0.00 0.00 52 1013.2
20260902005730 93 150 8.7 13.9 0.00 0.00 0.00 51 1012.9
20260902005226 93 141 7.8 10.4 0.00 0.00 0.00 50 1013.0
20260902004725 94 155 7.0 14.8 0.00 0.00 0.00 48 1013.1
20260902004221 94 154 4.3 9.6 0.00 0.00 0.00 47 1013.0
20260902003715 94 147 5.2 8.7 0.00 0.00 0.00 46 1012.8
20260902003211 95 133 7.8 13.0 0.00 0.00 0.00 45 1012.7
20260902002707 95 156 7.0 11.3 0.00 0.00 0.00 44 1012.8
20260902002206 95 178 5.2 11.3 0.00 0.00 0.00 43 1012.6
20260902001702 96 176 4.3 9.6 0.00 0.00 0.00 43 1012.5
20260902001201 96 135 9.6 13.9 0.00 0.00 0.00 42 1012.6
20260902000657 96 165 6.1 9.6 0.00 0.00 0.00 41 1012.6
20260902000152 96 187 5.2 12.2 0.00 0.00 0.00 42 1012.4
20260901235646 96 154 5.2 11.3 0.00 0.00 0.00 42 1012.5
20260901235141 97 141 9.6 15.6 0.00 0.00 0.00 41 1012.3
20260901234640 97 134 9.6 13.0 0.00 0.00 0.00 40 1012.4
20260901234136 97 135 13.9 15.6 0.00 0.00 0.00 41 1012.4
20260901233630 98 139 8.7 13.0 0.00 0.00 0.00 40 1012.2
20260901233126 98 151 9.6 16.5 0.00 0.00 0.00 40 1012.4
20260901232626 98 138 7.8 12.2 0.00 0.00 0.00 40 1012.3
20260901232121 98 154 5.2 12.2 0.00 0.00 0.00 40 1012.3
20260901231618 98 128 12.2 14.8 0.00 0.00 0.00 40 1012.2
20260901231114 99 137 7.0 10.4 0.00 0.00 0.00 40 1012.2
20260901230609 99 175 3.5 10.4 0.00 0.00 0.00 40 1012.2
20260901230104 99 172 7.0 12.2 0.00 0.00 0.00 40 1011.9
20260901225559 99 157 6.1 14.8 0.00 0.00 0.00 39 1011.9
20260901225058 100 162 3.5 11.3 0.00 0.00 0.00 38 1012.0
20260901224554 100 126 5.2 13.0 0.00 0.00 0.00 39 1012.0
20260901224050 100 151 7.8 12.2 0.00 0.00 0.00 39 1012.0
20260901223546 100 128 10.4 13.9 0.00 0.00 0.00 38 1011.9
20260901223041 100 140 9.6 15.6 0.00 0.00 0.00 37 1011.9
20260901222537 101 140 7.0 11.3 0.00 0.00 0.00 37 1011.9
20260901222032 101 157 5.2 9.6 0.00 0.00 0.00 35 1012.1
20260901221529 100 191 3.5 12.2 0.00 0.00 0.00 37 1012.1
20260901221023 100 156 6.1 9.6 0.00 0.00 0.00 36 1012.1
20260901220518 101 152 7.0 12.2 0.00 0.00 0.00 35 1012.1
20260901220016 101 205 2.6 8.7 0.00 0.00 0.00 35 1012.1
20260901215514 101 135 6.1 11.3 0.00 0.00 0.00 35 1012.0
20260901215009 101 188 3.5 10.4 0.00 0.00 0.00 34 1012.2
20260901214508 102 125 6.1 7.8 0.00 0.00 0.00 33 1012.0
20260901214003 102 187 7.0 8.7 0.00 0.00 0.00 34 1012.2
20260901213456 101 169 3.5 4.3 0.00 0.00 0.00 34 1012.3
20260901212956 102 141 6.1 6.1 0.00 0.00 0.00 33 1012.4
20260901212451 102 148 6.1 10.4 0.00 0.00 0.00 33 1012.4
20260901211948 101 151 3.5 11.3 0.00 0.00 0.00 32 1012.4
20260901211443 101 138 8.7 12.2 0.00 0.00 0.00 33 1012.5
20260901210939 101 149 6.1 10.4 0.00 0.00 0.00 34 1012.5
20260901210434 101 150 6.1 7.8 0.00 0.00 0.00 34 1012.5
20260901205930 101 171 4.3 5.2 0.00 0.00 0.00 34 1012.6
20260901205425 102 112 4.3 10.4 0.00 0.00 0.00 34 1012.7
20260901204920 101 136 9.6 11.3 0.00 0.00 0.00 35 1012.7
20260901204417 100 205 3.5 10.4 0.00 0.00 0.00 36 1013.0
20260901203916 100 160 7.8 11.3 0.00 0.00 0.00 36 1013.0
20260901203411 101 173 3.5 7.8 0.00 0.00 0.00 37 1013.1
20260901202906 101 190 5.2 10.4 0.00 0.00 0.00 37 1013.2
20260901202400 101 143 3.5 7.0 0.00 0.00 0.00 38 1013.1
20260901201857 101 137 10.4 11.3 0.00 0.00 0.00 38 1013.4
20260901201356 102 149 7.0 14.8 0.00 0.00 0.00 38 1013.3
20260901200850 101 160 5.2 8.7 0.00 0.00 0.00 38 1013.5
20260901200345 101 181 7.8 12.2 0.00 0.00 0.00 38 1013.5
20260901195844 102 140 7.8 11.3 0.00 0.00 0.00 38 1013.6
20260901195337 100 192 6.1 7.8 0.00 0.00 0.00 38 1013.5
20260901194833 100 171 2.6 4.3 0.00 0.00 0.00 38 1013.9
20260901194327 100 184 5.2 8.7 0.00 0.00 0.00 39 1013.8
20260901193824 100 147 5.2 10.4 0.00 0.00 0.00 39 1014.1
20260901193322 99 149 4.3 8.7 0.00 0.00 0.00 39 1014.0
20260901192817 100 142 7.8 11.3 0.00 0.00 0.00 38 1014.1
20260901192313 100 168 3.5 7.0 0.00 0.00 0.00 39 1014.0
20260901191808 100 208 3.5 8.7 0.00 0.00 0.00 37 1014.1
20260901191304 101 200 7.0 7.0 0.00 0.00 0.00 39 1014.3
20260901190800 101 189 2.6 9.6 0.00 0.00 0.00 38 1014.4
20260901190254 99 168 4.3 6.1 0.00 0.00 0.00 41 1014.3
20260901185752 98 148 5.2 13.0 0.00 0.00 0.00 40 1014.7
20260901185252 98 133 8.7 8.7 0.00 0.00 0.00 43 1014.6
20260901184747 98 168 7.0 9.6 0.00 0.00 0.00 41 1015.0
20260901184242 98 178 4.3 7.8 0.00 0.00 0.00 43 1014.8
20260901183738 98 179 4.3 7.8 0.00 0.00 0.00 43 1014.8
20260901183237 98 166 6.1 8.7 0.00 0.00 0.00 44 1015.0
20260901182734 98 145 10.4 13.0 0.00 0.00 0.00 43 1015.0
20260901182232 97 169 2.6 4.3 0.00 0.00 0.00 43 1015.3
20260901181727 98 142 6.1 10.4 0.00 0.00 0.00 43 1015.2
20260901181222 98 159 7.8 8.7 0.00 0.00 0.00 43 1015.2
20260901180721 97 193 7.0 7.0 0.00 0.00 0.00 45 1015.3
20260901180220 96 151 8.7 13.0 0.00 0.00 0.00 46 1015.2
20260901175720 97 189 4.3 8.7 0.00 0.00 0.00 46 1015.6
20260901175215 96 141 6.1 12.2 0.00 0.00 0.00 46 1015.5
20260901174710 95 177 7.8 10.4 0.00 0.00 0.00 48 1015.6
20260901174206 96 151 5.2 13.0 0.00 0.00 0.00 47 1015.7
20260901173701 95 150 7.8 8.7 0.00 0.00 0.00 48 1015.8
20260901173156 95 133 9.6 11.3 0.00 0.00 0.00 48 1015.9
20260901172652 96 174 4.3 11.3 0.00 0.00 0.00 47 1015.9
20260901172149 95 181 5.2 7.8 0.00 0.00 0.00 48 1015.8
20260901171643 95 169 3.5 8.7 0.00 0.00 0.00 50 1015.9
20260901171142 95 143 8.7 10.4 0.00 0.00 0.00 48 1015.9
20260901170637 95 138 8.7 11.3 0.00 0.00 0.00 49 1016.0
20260901170132 94 167 8.7 11.3 0.00 0.00 0.00 51 1016.0
20260901165630 93 161 4.3 9.6 0.00 0.00 0.00 53 1016.1
20260901165126 93 187 4.3 10.4 0.00 0.00 0.00 52 1016.3
20260901164622 93 157 5.2 10.4 0.00 0.00 0.00 53 1016.3
20260901164117 92 169 6.1 8.7 0.00 0.00 0.00 57 1016.3
20260901163612 92 178 7.0 9.6 0.00 0.00 0.00 57 1016.2
20260901163111 92 175 3.5 10.4 0.00 0.00 0.00 59 1016.4
20260901162606 91 183 4.3 7.8 0.00 0.00 0.00 60 1016.2
20260901162100 92 145 7.0 7.8 0.00 0.00 0.00 60 1016.3
20260901161559 92 187 7.0 7.8 0.00 0.00 0.00 60 1016.2
20260901161059 91 160 4.3 6.1 0.00 0.00 0.00 61 1016.6
20260901160555 91 178 4.3 7.8 0.00 0.00 0.00 61 1016.4
20260901160050 91 194 5.2 8.7 0.00 0.00 0.00 61 1016.5
20260901155549 90 83 3.5 11.3 0.00 0.00 0.00 62 1016.5
20260901155044 90 166 4.3 9.6 0.00 0.00 0.00 62 1016.3
20260901154539 90 206 3.5 7.8 0.00 0.00 0.00 62 1016.4
20260901154034 90 187 4.3 7.0 0.00 0.00 0.00 63 1016.6
20260901153528 90 186 4.3 7.8 0.00 0.00 0.00 63 1016.6
20260901153022 89 185 3.5 7.8 0.00 0.00 0.00 65 1016.4
20260901152517 89 195 4.3 8.7 0.00 0.00 0.00 65 1016.4
20260901152016 88 166 4.3 9.6 0.00 0.00 0.00 66 1016.5
20260901151512 88 205 5.2 8.7 0.00 0.00 0.00 67 1016.4
20260901151011 87 188 4.3 8.7 0.00 0.00 0.00 68 1016.4
20260901150509 87 164 2.6 8.7 0.00 0.00 0.00 69 1016.4
20260901150008 87 186 5.2 8.7 0.00 0.00 0.00 69 1016.4
20260901145501 87 184 3.5 8.7 0.00 0.00 0.00 70 1016.5
20260901145001 87 179 3.5 7.8 0.00 0.00 0.00 71 1016.3
20260901144456 86 144 6.1 7.0 0.00 0.00 0.00 73 1016.4
20260901143951 86 184 1.7 7.8 0.00 0.00 0.00 73 1016.4
20260901143448 86 189 6.1 7.0 0.00 0.00 0.00 74 1016.4
20260901142944 86 204 4.3 7.8 0.00 0.00 0.00 75 1016.3
20260901142444 85 168 3.5 7.0 0.00 0.00 0.00 76 1016.4
20260901141938 85 170 3.5 7.0 0.00 0.00 0.00 76 1016.4
20260901141433 85 171 3.5 9.6 0.00 0.00 0.00 77 1016.4
20260901140928 84 174 4.3 5.2 0.00 0.00 0.00 77 1016.5
20260901140426 84 192 2.6 7.8 0.00 0.00 0.00 78 1016.3
20260901135926 84 190 6.1 7.0 0.00 0.00 0.00 78 1016.2
20260901135421 84 171 4.3 7.0 0.00 0.00 0.00 79 1016.1
20260901134917 83 146 6.1 8.7 0.00 0.00 0.00 79 1016.2
20260901134412 83 145 3.5 6.1 0.00 0.00 0.00 80 1016.2
20260901133912 83 182 3.5 5.2 0.00 0.00 0.00 81 1016.1
20260901133406 82 182 1.7 7.0 0.00 0.00 0.00 81 1016.1
20260901132905 82 157 2.6 7.0 0.00 0.00 0.00 82 1016.0
20260901132359 82 156 3.5 5.2 0.00 0.00 0.00 83 1015.9
20260901131853 82 185 4.3 6.1 0.00 0.00 0.00 83 1015.9
20260901131352 81 219 2.6 4.3 0.00 0.00 0.00 84 1015.8
20260901130848 81 185 1.7 3.5 0.00 0.00 0.00 84 1015.9
20260901130343 81 205 0.9 4.3 0.00 0.00 0.00 85 1015.6
20260901125840 81 139 3.5 4.3 0.00 0.00 0.00 85 1015.8
20260901125339 80 168 2.6 3.5 0.00 0.00 0.00 85 1015.8
20260901124835 80 185 2.6 4.3 0.00 0.00 0.00 86 1015.6
20260901124330 80 170 1.7 3.5 0.00 0.00 0.00 86 1015.6
20260901123829 80 189 3.5 3.5 0.00 0.00 0.00 86 1015.5